Location: ????????
(55.8351°N, 38.7040°E)
Time: 15:44:44
(UTC+00:00)

Cosmos 44 Rocket - Pass Details

Date: 14 April 2024
Orbit: 641 x 743 km, 65.1° (Epoch: 24 May)

Event Time Altitude Azimuth Distance (km) Brightness Sun altitude
Exits shadow 00:10:37 27° 213° (SSW) 1,404 4.3 -16.2°
Maximum altitude 00:13:28 74° 133° (SE) 774 3.5 -16.0°
Drops below altitude 10° 00:18:36 10° 49° (NE) 2,244 7.3 -15.4°
Sets 00:20:58 0° 48° (NE) 3,158 8.6 -15.2°
